Regional Weather Roundup
Issued by NWS

Home | Current Version | Previous Version | Text Only | Print | Product List | Glossary On
Versions: 1 2 3 4 5 6 7 8 9 10 11 12 13 14 15 16 17 18 19 20 21 22 23 24 25 26 27 28 29 30 31 32 33 34 35 36 37 38 39 40 41 42 43 44 45 46 47 48 49 50
885
ASUS44 KLIX 171311
RWRLA
LOUISIANA WEATHER ROUNDUP
NATIONAL WEATHER SERVICE NEW ORLEANS LA
800 AM CDT FRI APR 17 2015

NOTE: "FAIR" INDICATES FEW OR NO CLOUDS BELOW 12,000 FEET WITH NO
      SIGNIFICANT WEATHER AND/OR OBSTRUCTIONS TO VISIBILITY.
      SKY/WX - SKY CONDITION AND SIGNIFICANT WEATHER.
      TMP - AIR TEMPERATURE.    DP   - DEWPOINT TEMPERATURE.
      RH  - RELATIVE HUMIDITY.  PRES - PRESSURE.
      HX  - HEAT INDEX.         WCI  - WIND CHILL INDEX.

*  THESE STATIONS ARE NOT NWS OR FAA STATIONS AND ARE NOT UNDER
   NWS QUALITY CONTROL.

LAZ040-048-061>063-065-066-069-171400-
SOUTHEAST LOUISIANA

CITY           SKY/WX    TMP DP  RH WIND       PRES   REMARKS
N.O. AUDUBON     N/A     69  69 100 MISG        N/A
N.O. INTL ARPT PTSUNNY   71  66  84 SE5       29.96F
N.O. LAKEFRONT CLOUDY    74  69  85 E7        29.98F
SLIDELL        PTSUNNY   70  69  97 NE5       29.97F
BATON ROUGE    MOSUNNY   68  67  96 E6        29.94F
BOOTHVILLE     CLOUDY    71  69  93 SE8       29.99S
BELLE CHASSE   LGT RAIN  69  67  93 CALM      29.98S FOG
BOGALUSA*        N/A     71  67  88 S7        29.98F
GALLIANO*      CLOUDY    70  68  93 N3        29.99S
NEW ROADS*     FAIR      68  66  92 CALM      29.97R
GONZALES*      FAIR      69  69 100 E5        29.93F
HAMMOND*       MOSUNNY   70  66  88 SE5       29.97S
HOUMA*         CLOUDY    70  68  94 N6        29.99S
PORT FOURCHON* PTSUNNY   72  70  94 SE7       30.02S

$$

LAZ041-044-053-054-171400-
SOUTHWEST LOUISIANA

CITY           SKY/WX    TMP DP  RH WIND       PRES   REMARKS
LAKE CHARLES   MOSUNNY   69  65  86 E3        29.93R
LAFAYETTE      SUNNY     69  66  90 NE6       29.93R
PATTERSON      PTSUNNY   68  64  88 SE12      29.95F
SALT POINT       N/A     69  67  93 SE10      29.94F
NEW IBERIA     MOSUNNY   70  66  87 SE8       29.93R
CHENAULT AIRPK PTSUNNY   66  63  88 CALM        N/A

$$

LAZ027-028-171400-
CENTRAL LOUISIANA

CITY           SKY/WX    TMP DP  RH WIND       PRES   REMARKS
FORT POLK      MOSUNNY   64  63  96 NE6       29.98R
ALEXANDRIA INT SUNNY     66  63  90 NE3       29.97R
ALEXANDRIA     CLOUDY    64  64 100 NE3       29.99R

$$

LAZ001-002-171400-
NORTHWEST LOUISIANA

CITY           SKY/WX    TMP DP  RH WIND       PRES   REMARKS
SHREVEPORT     CLOUDY    64  63  96 CALM      30.00R
BARKSDALE AFB  CLOUDY    64  64 100 N3        30.00R
DTN SHREVEPORT PTSUNNY   64  61  90 N5        30.00R

$$

LAZ014-016-171400-
NORTHEAST LOUISIANA

CITY           SKY/WX    TMP DP  RH WIND       PRES   REMARKS
MONROE         SUNNY     66  65  96 SE7       29.99S
TALLULAH       MOSUNNY   67  64  90 CALM      30.00S

$$




USA.gov is the U.S. government's official web portal to all federal, state and local government web resources and services.